Location: Trebic
(49.2170°N, 15.8830°E)
Time: 14:22:12
(UTC+02:00)

ISS - Pass Details

Date: 25 March 2019
Orbit: 408 x 410 km, 51.6° (Epoch: 24 April)

Event Time Altitude Azimuth Distance (km) Brightness Sun altitude
Rises 20:13:25 0° 258° (WSW) 2,332 0.9 -19.1°
Reaches altitude 10° 20:15:31 10° 261° (W) 1,472 -0.2 -19.4°
Maximum altitude 20:18:49 70° 346° (NNW) 438 -3.7 -19.9°
Enters shadow 20:19:03 66° 21° (NNE) 450 -3.7 -19.9°
